Glenwood, MN

11:26 PM CDT on June 25, 2017 (GMT -0500)
Glenwood Municipal

Weather History for KGHW - December, 2012

Change the Weather History Date:

Saturday, December 8, 2012

  Actual Average Record
Temperature  
Mean Temperature 26 °F -  
Max Temperature 28 °F 27 °F 53 °F (1990)
Min Temperature 23 °F 9 °F -13 °F (1955)
Degree Days  
Heating Degree Days 40    
Moisture  
Dew Point 23 °F    
Average Humidity 95    
Maximum Humidity 100    
Minimum Humidity 86    
Precipitation  
Precipitation 0.02 in - - ()
Sea Level Pressure  
Sea Level Pressure 29.97 in    
Wind  
Wind Speed 6 mph (ESE)    
Max Wind Speed 15 mph    
Max Gust Speed -    
Visibility 4 miles    
Events Snow    
Averages and records for this station are not official NWS values.
T = Trace of Precipitation, MM = Missing Value Source: NWS Daily Summary

Daily Weather History Graph

Daily Weather History Graph

Search for Another Location

Airport or City:

Trip Planner

Search our weather history database for the weather conditions in past years. The results will help you decide how hot, cold, wet, or windy it might be!

Date:

Astronomy

Dec. 08, 2012 Rise Set
Actual Time 7:49 AM CST 4:37 PM CST
Civil Twilight 7:15 AM CST 5:11 PM CST
Nautical Twilight 6:37 AM CST 5:48 PM CST
Astronomical Twilight 6:01 AM CST 6:24 PM CST
Moon 2:01 AM CST (12/8) 1:19 PM CST (12/8)
Length of Visible Light 9h 55m
Length of Day
8h 47m
Waning Crescent, 28% of the Moon is Illuminated
Dec 8
Waning Crescent
Dec 13
New
Dec 19
First Quarter
Dec 28
Full
Jan 4
Last Quarter

Hourly Weather History & Observations

Time (CST) Temp. Windchill Dew Point Humidity Pressure Visibility Wind Dir Wind Speed Gust Speed Precip Events Conditions
12:13 AM 23.0 °F - 21.2 °F 93% 30.02 in 5.0 mi Calm Calm - N/A Snow Light Snow
12:33 AM 23.0 °F - 21.2 °F 93% 30.01 in 5.0 mi Calm Calm - N/A Snow Light Snow
12:54 AM 23.0 °F 18.4 °F 21.2 °F 93% 30.01 in 3.0 mi NE 3.5 mph - N/A Snow Light Snow
1:13 AM 23.0 °F 18.4 °F 21.2 °F 93% 30.01 in 2.5 mi ENE 3.5 mph - N/A Snow Light Snow
1:33 AM 23.0 °F 17.0 °F 21.2 °F 93% 30.00 in 3.0 mi East 4.6 mph - N/A Snow Light Snow
1:54 AM 23.0 °F 17.0 °F 21.2 °F 93% 30.00 in 4.0 mi East 4.6 mph - N/A Snow Light Snow
2:13 AM 23.0 °F - 21.2 °F 93% 30.01 in 5.0 mi Calm Calm - N/A Snow Light Snow
2:33 AM 23.0 °F - 21.2 °F 93% 30.01 in 4.0 mi Calm Calm - N/A Snow Light Snow
2:54 AM 23.0 °F - 21.2 °F 93% 30.01 in 5.0 mi Calm Calm - N/A Snow Light Snow
3:13 AM 23.0 °F 18.4 °F 21.2 °F 93% 30.01 in 5.0 mi East 3.5 mph - N/A   Scattered Clouds
3:33 AM 23.0 °F 17.0 °F 21.2 °F 93% 30.00 in 5.0 mi East 4.6 mph - N/A Snow Light Snow
3:54 AM 23.0 °F 15.8 °F 21.2 °F 93% 30.00 in 5.0 mi East 5.8 mph - N/A Snow Light Snow
4:13 AM 23.0 °F 17.0 °F 21.2 °F 93% 30.00 in 7.0 mi East 4.6 mph - N/A Snow Light Snow
4:33 AM 23.0 °F 15.8 °F 21.2 °F 93% 30.00 in 7.0 mi East 5.8 mph - N/A   Overcast
4:54 AM 23.0 °F 15.8 °F 21.2 °F 93% 30.00 in 5.0 mi ESE 5.8 mph - N/A   Overcast
5:13 AM 23.0 °F 15.8 °F 21.2 °F 93% 30.00 in 4.0 mi ESE 5.8 mph - N/A Snow Light Snow
5:54 AM 23.0 °F 14.7 °F 21.2 °F 93% 29.99 in 2.5 mi ESE 6.9 mph - N/A Snow Light Snow
6:13 AM 23.0 °F 14.7 °F 21.2 °F 93% 29.99 in 3.0 mi ESE 6.9 mph - N/A Snow Light Snow
6:33 AM 23.0 °F 13.9 °F 21.2 °F 93% 29.98 in 5.0 mi ESE 8.1 mph - N/A Snow Light Snow
6:54 AM 23.0 °F 13.9 °F 21.2 °F 93% 29.98 in 5.0 mi ESE 8.1 mph - N/A   Overcast
7:13 AM 23.0 °F 14.7 °F 21.2 °F 93% 29.98 in 5.0 mi ESE 6.9 mph - N/A   Overcast
7:33 AM 23.0 °F 14.7 °F 21.2 °F 93% 29.98 in 5.0 mi ESE 6.9 mph - N/A   Overcast
7:54 AM 23.0 °F 15.8 °F 21.2 °F 93% 29.98 in 5.0 mi ESE 5.8 mph - N/A   Overcast
8:13 AM 23.0 °F 14.7 °F 21.2 °F 93% 29.99 in 4.0 mi ESE 6.9 mph - N/A   Overcast
8:33 AM 23.0 °F 13.9 °F 21.2 °F 93% 29.99 in 3.0 mi SE 8.1 mph - N/A   Overcast
8:53 AM 23.0 °F 13.9 °F 21.2 °F 93% 29.99 in 4.0 mi SE 8.1 mph - N/A   Overcast
9:13 AM 24.8 °F 16.9 °F 23.0 °F 93% 29.99 in 4.0 mi SE 6.9 mph - N/A   Overcast
9:33 AM 24.8 °F 16.9 °F 23.0 °F 93% 29.99 in 4.0 mi SE 6.9 mph - N/A   Overcast
9:53 AM 24.8 °F 16.1 °F 24.8 °F 100% 29.99 in 2.5 mi SE 8.1 mph - N/A   Overcast
10:13 AM 24.8 °F 14.0 °F 24.8 °F 100% 30.00 in 1.5 mi SE 11.5 mph - N/A   Overcast
10:53 AM 26.6 °F 18.2 °F 24.8 °F 93% 30.00 in 4.0 mi SSE 8.1 mph - N/A   Overcast
11:13 AM 26.6 °F 18.2 °F 24.8 °F 93% 29.99 in 7.0 mi SE 8.1 mph - N/A   Overcast
11:34 AM 26.6 °F 18.2 °F 26.6 °F 100% 29.99 in 7.0 mi SE 8.1 mph - N/A   Overcast
11:53 AM 28.4 °F 20.4 °F 24.8 °F 86% 29.98 in 7.0 mi SSE 8.1 mph - N/A   Overcast
12:13 PM 28.4 °F 21.2 °F 26.6 °F 93% 29.98 in 7.0 mi SSE 6.9 mph - N/A   Overcast
12:34 PM 28.4 °F 19.7 °F 24.8 °F 86% 29.97 in 7.0 mi SSE 9.2 mph - N/A   Overcast
12:53 PM 26.6 °F 16.8 °F 24.8 °F 93% 29.97 in 5.0 mi SE 10.4 mph - N/A   Overcast
1:13 PM 26.6 °F 16.8 °F 24.8 °F 93% 29.96 in 4.0 mi SE 10.4 mph - N/A   Overcast
1:53 PM 26.6 °F 15.2 °F 24.8 °F 93% 29.93 in 4.0 mi ESE 13.8 mph - N/A   Overcast
2:13 PM 26.6 °F 16.8 °F 24.8 °F 93% 29.94 in 5.0 mi SE 10.4 mph - N/A   Overcast
2:34 PM 26.6 °F 16.2 °F 24.8 °F 93% 29.94 in 4.0 mi SE 11.5 mph - N/A   Overcast
2:53 PM 24.8 °F 16.1 °F 24.8 °F 100% 29.94 in 3.0 mi SE 8.1 mph - N/A   Overcast
3:13 PM 24.8 °F 14.0 °F 24.8 °F 100% 29.94 in 4.0 mi SE 11.5 mph - N/A   Overcast
3:34 PM 24.8 °F 14.6 °F 24.8 °F 100% 29.94 in 5.0 mi SE 10.4 mph - N/A   Overcast
3:53 PM 24.8 °F 15.3 °F 24.8 °F 100% 29.94 in 4.0 mi SE 9.2 mph - N/A   Overcast
4:13 PM 24.8 °F 13.4 °F 24.8 °F 100% 29.94 in 4.0 mi ESE 12.7 mph - N/A   Overcast
4:34 PM 24.8 °F 14.6 °F 23.0 °F 93% 29.95 in 4.0 mi ESE 10.4 mph - N/A   Overcast
4:53 PM 24.8 °F 15.3 °F 24.8 °F 100% 29.95 in 5.0 mi ESE 9.2 mph - N/A   Overcast
5:13 PM 24.8 °F 14.0 °F 23.0 °F 93% 29.95 in 7.0 mi East 11.5 mph - N/A   Overcast
5:34 PM 24.8 °F 14.6 °F 24.8 °F 100% 29.95 in 5.0 mi East 10.4 mph - N/A   Overcast
5:53 PM 24.8 °F 15.3 °F 23.0 °F 93% 29.95 in 7.0 mi ESE 9.2 mph - N/A   Mostly Cloudy
6:14 PM 24.8 °F 16.1 °F 23.0 °F 93% 29.95 in 5.0 mi ESE 8.1 mph - N/A   Mostly Cloudy
6:53 PM 24.8 °F 15.3 °F 23.0 °F 93% 29.95 in 5.0 mi East 9.2 mph - N/A   Overcast
7:14 PM 24.8 °F 14.0 °F 23.0 °F 93% 29.94 in 5.0 mi East 11.5 mph - N/A   Overcast
7:33 PM 24.8 °F 14.6 °F 23.0 °F 93% 29.94 in 5.0 mi East 10.4 mph - N/A   Scattered Clouds
7:53 PM 24.8 °F 13.4 °F 23.0 °F 93% 29.94 in 7.0 mi East 12.7 mph - N/A   Clear
8:14 PM 24.8 °F 14.6 °F 24.8 °F 100% 29.94 in 3.0 mi East 10.4 mph - N/A Snow Light Snow
8:33 PM 26.6 °F 16.2 °F 24.8 °F 93% 29.94 in 2.0 mi East 11.5 mph - N/A Snow Light Snow
8:53 PM 26.6 °F 16.2 °F 24.8 °F 93% 29.93 in 2.5 mi East 11.5 mph - N/A Snow Light Snow
9:14 PM 26.6 °F 15.2 °F 24.8 °F 93% 29.93 in 2.5 mi East 13.8 mph - N/A Snow Light Snow
9:33 PM 26.6 °F 15.2 °F 26.6 °F 100% 29.94 in 2.5 mi East 13.8 mph - N/A Snow Light Snow
9:53 PM 26.6 °F 15.2 °F 26.6 °F 100% 29.94 in 1.2 mi East 13.8 mph - N/A Snow Light Snow
10:14 PM 26.6 °F 15.2 °F 26.6 °F 100% 29.94 in 1.5 mi East 13.8 mph - N/A Snow Light Snow
10:33 PM 26.6 °F 14.7 °F 26.6 °F 100% 29.93 in 1.2 mi East 15.0 mph - N/A Snow Light Snow
10:53 PM 26.6 °F 15.2 °F 26.6 °F 100% 29.93 in 1.0 mi East 13.8 mph - N/A Snow Light Snow
11:13 PM 26.6 °F 15.7 °F 26.6 °F 100% 29.94 in 0.8 mi East 12.7 mph - 0.01 in Snow Snow
11:33 PM 28.4 °F 18.5 °F 26.6 °F 93% 29.95 in 1.0 mi East 11.5 mph - 0.02 in Snow Light Snow
11:54 PM 28.4 °F 18.5 °F 26.6 °F 93% 29.94 in 0.8 mi East 11.5 mph - 0.02 in Snow Snow